SENTINEL-1A

Last updated on Thu Nov 21 2024 00:02:27 GMT+0000 (Coordinated Universal Time)

1 39634U 14016A 24325.56200477 .00000376 00000+0 89424-4 0 9990 2 39634 98.1815 330.4098 0001365 86.2584 273.8772 14.59199859566366
UTC large
Height (km)
Speed (km/s)
/
Latitude / Longitude
Inclination (degrees)
Orbital Period (minutes)
Azimuth
Elevation
Range (km)
Doppler Factor

Next 0 passes for location: London (51.5072 / 0.1276)

Sorry there are no passes over London.